AUA200 EDDF-LOWW

Flight info

Callsign AUA200
Flight time 1h 4m
Altitude 31000
Route SULUS7S SULUS Z650 VEMUT/N0440F330 DCT ETVIS DCT BUDWA DCT BUDEX BUDEX2W
Aircraft A320/M-SDE3FGHIRWY/LB1

Departure

Time 2026-04-17 06:56
Airport Frankfurt Main Airport (EDDF)

Arrival

Time 2026-04-17 08:01
Airport Vienna International Airport (LOWW)
Time Latitude Longitude Altitude Speed Heading
2026-04-17 06:28 50.04655 8.56810 360 ft 0 kts 295°
2026-04-17 06:43 50.04648 8.56834 363 ft 4 kts 295°
2026-04-17 06:44 50.04637 8.56870 362 ft 4 kts 294°
2026-04-17 06:44 50.04631 8.56908 361 ft 4 kts 254°
2026-04-17 06:44 50.04645 8.56933 363 ft 4 kts 198°
2026-04-17 06:44 50.04669 8.56945 357 ft 2 kts 205°
2026-04-17 06:45 50.04656 8.56936 363 ft 4 kts 204°
2026-04-17 06:45 50.04648 8.56930 364 ft 0 kts 204°
2026-04-17 06:47 50.04588 8.56904 356 ft 14 kts 193°
2026-04-17 06:47 50.04562 8.56894 358 ft 0 kts 193°
2026-04-17 06:47 50.04523 8.56880 362 ft 12 kts 193°
2026-04-17 06:48 50.04454 8.56830 361 ft 10 kts 241°
2026-04-17 06:48 50.04427 8.56733 362 ft 10 kts 250°
2026-04-17 06:48 50.04399 8.56611 362 ft 15 kts 250°
2026-04-17 06:48 50.04365 8.56462 359 ft 14 kts 250°
2026-04-17 06:49 50.04332 8.56326 359 ft 13 kts 249°
2026-04-17 06:49 50.04302 8.56202 357 ft 12 kts 249°
2026-04-17 06:49 50.04274 8.56090 360 ft 11 kts 249°
2026-04-17 06:49 50.04244 8.55957 354 ft 18 kts 251°
2026-04-17 06:50 50.04197 8.55764 353 ft 19 kts 249°
2026-04-17 06:50 50.04151 8.55569 358 ft 19 kts 250°
2026-04-17 06:50 50.04105 8.55375 357 ft 19 kts 249°
2026-04-17 06:50 50.04062 8.55198 356 ft 16 kts 249°
2026-04-17 06:51 50.04024 8.55039 361 ft 17 kts 250°
2026-04-17 06:51 50.03977 8.54837 357 ft 21 kts 250°
2026-04-17 06:51 50.03926 8.54614 352 ft 23 kts 250°
2026-04-17 06:51 50.03862 8.54375 354 ft 23 kts 240°
2026-04-17 06:52 50.03785 8.54159 347 ft 23 kts 251°
2026-04-17 06:52 50.03726 8.53915 346 ft 25 kts 249°
2026-04-17 06:52 50.03669 8.53673 345 ft 24 kts 249°
2026-04-17 06:52 50.03610 8.53440 340 ft 20 kts 251°
2026-04-17 06:53 50.03561 8.53236 337 ft 21 kts 248°
2026-04-17 06:53 50.03507 8.53017 338 ft 23 kts 250°
2026-04-17 06:53 50.03462 8.52842 333 ft 11 kts 245°
2026-04-17 06:53 50.03436 8.52742 336 ft 0 kts 250°
2026-04-17 06:54 50.03435 8.52735 336 ft 5 kts 250°
2026-04-17 06:54 50.03409 8.52623 334 ft 11 kts 249°
2026-04-17 06:54 50.03368 8.52595 335 ft 0 kts 178°
2026-04-17 06:55 50.03164 8.52598 334 ft 67 kts 180°
2026-04-17 06:55 50.02479 8.52605 335 ft 128 kts 179°
2026-04-17 06:56 50.01424 8.52634 380 ft 170 kts 176°
2026-04-17 06:56 50.00253 8.52703 1040 ft 168 kts 176°
2026-04-17 06:56 49.99088 8.52800 1766 ft 167 kts 176°
2026-04-17 06:56 49.97915 8.52926 2406 ft 166 kts 172°
2026-04-17 06:57 49.96810 8.53465 2950 ft 172 kts 150°
2026-04-17 06:57 49.95901 8.54811 3260 ft 193 kts 123°
2026-04-17 06:57 49.95183 8.56712 3515 ft 216 kts 121°
2026-04-17 06:57 49.94400 8.58858 3877 ft 240 kts 120°
2026-04-17 06:58 49.93551 8.61223 4403 ft 259 kts 120°
2026-04-17 06:58 49.92663 8.63712 5219 ft 266 kts 120°
2026-04-17 06:58 49.91757 8.66244 6072 ft 271 kts 120°
2026-04-17 06:58 49.90836 8.68813 6946 ft 275 kts 120°
2026-04-17 06:59 49.89896 8.71427 7745 ft 280 kts 120°
2026-04-17 06:59 49.88939 8.74080 8545 ft 284 kts 120°
2026-04-17 06:59 49.87965 8.76777 9346 ft 289 kts 119°
2026-04-17 06:59 49.86977 8.79517 10173 ft 293 kts 119°
2026-04-17 07:00 49.85977 8.82287 10672 ft 308 kts 119°
2026-04-17 07:00 49.84894 8.85286 10908 ft 331 kts 119°
2026-04-17 07:00 49.83732 8.88504 11192 ft 350 kts 119°
2026-04-17 07:00 49.82521 8.91844 11767 ft 358 kts 119°
2026-04-17 07:01 49.81288 8.95231 12440 ft 364 kts 119°
2026-04-17 07:01 49.80037 8.98662 13102 ft 368 kts 119°
2026-04-17 07:01 49.78766 9.02141 13772 ft 373 kts 119°
2026-04-17 07:01 49.77480 9.05661 14393 ft 378 kts 119°
2026-04-17 07:02 49.76306 9.09327 14961 ft 382 kts 110°
2026-04-17 07:02 49.75543 9.13284 15550 ft 385 kts 102°
2026-04-17 07:02 49.74904 9.17326 16150 ft 389 kts 103°
2026-04-17 07:02 49.74252 9.21408 16740 ft 393 kts 103°
2026-04-17 07:03 49.73589 9.25529 17320 ft 396 kts 103°
2026-04-17 07:03 49.72918 9.29675 17890 ft 400 kts 103°
2026-04-17 07:03 49.72236 9.33864 18457 ft 404 kts 103°
2026-04-17 07:03 49.71554 9.38040 18939 ft 407 kts 103°
2026-04-17 07:04 49.70857 9.42299 19422 ft 411 kts 103°
2026-04-17 07:04 49.70152 9.46591 19895 ft 414 kts 103°
2026-04-17 07:04 49.69439 9.50915 20376 ft 417 kts 103°
2026-04-17 07:04 49.68720 9.55269 20834 ft 421 kts 103°
2026-04-17 07:05 49.67996 9.59663 21311 ft 424 kts 102°
2026-04-17 07:05 49.67501 9.64150 21767 ft 425 kts 92°
2026-04-17 07:05 49.67492 9.68713 22232 ft 426 kts 82°
2026-04-17 07:05 49.67968 9.73212 22697 ft 425 kts 72°
2026-04-17 07:06 49.68748 9.77620 23145 ft 427 kts 71°
2026-04-17 07:06 49.69537 9.82060 23587 ft 430 kts 71°
2026-04-17 07:06 49.70327 9.86533 23989 ft 433 kts 71°
2026-04-17 07:06 49.71145 9.91018 24356 ft 434 kts 68°
2026-04-17 07:07 49.72297 9.95315 24734 ft 432 kts 59°
2026-04-17 07:07 49.73862 9.99280 25105 ft 430 kts 50°
2026-04-17 07:07 49.75613 10.03035 25456 ft 432 kts 50°
2026-04-17 07:07 49.77374 10.06815 25810 ft 434 kts 50°
2026-04-17 07:08 49.79118 10.10568 26163 ft 436 kts 50°
2026-04-17 07:08 49.80890 10.14406 26515 ft 439 kts 50°
2026-04-17 07:08 49.82663 10.18266 26862 ft 441 kts 50°
2026-04-17 07:08 49.84442 10.22144 27200 ft 443 kts 50°
2026-04-17 07:09 49.86232 10.26054 27528 ft 445 kts 50°
2026-04-17 07:09 49.88028 10.29982 27860 ft 448 kts 50°
2026-04-17 07:09 49.89833 10.33929 28187 ft 450 kts 50°
2026-04-17 07:09 49.91647 10.37896 28506 ft 452 kts 50°
2026-04-17 07:10 49.93471 10.41882 28817 ft 454 kts 50°
2026-04-17 07:10 49.95307 10.45900 29122 ft 456 kts 50°
2026-04-17 07:10 49.97142 10.49925 29415 ft 458 kts 50°
2026-04-17 07:10 49.98988 10.53980 29737 ft 460 kts 50°
2026-04-17 07:11 50.00831 10.58050 30091 ft 460 kts 50°
2026-04-17 07:11 50.02664 10.62137 30398 ft 462 kts 52°
2026-04-17 07:11 50.04165 10.66519 30723 ft 468 kts 63°
2026-04-17 07:11 50.05156 10.71367 31039 ft 474 kts 73°
2026-04-17 07:12 50.05595 10.76488 31226 ft 480 kts 84°
2026-04-17 07:12 50.05422 10.81672 31260 ft 480 kts 96°
2026-04-17 07:12 50.04622 10.86727 31259 ft 482 kts 106°
2026-04-17 07:13 50.02510 10.96626 31255 ft 482 kts 106°
2026-04-17 07:13 50.00402 11.06522 31255 ft 482 kts 105°
2026-04-17 07:14 49.98292 11.16430 31260 ft 483 kts 105°
2026-04-17 07:14 49.96175 11.26330 31255 ft 483 kts 105°
2026-04-17 07:15 49.94074 11.36226 31252 ft 482 kts 105°
2026-04-17 07:15 49.92027 11.46135 31259 ft 482 kts 103°
2026-04-17 07:16 49.90209 11.56076 31245 ft 482 kts 102°
2026-04-17 07:16 49.88453 11.66105 31237 ft 481 kts 100°
2026-04-17 07:17 49.87430 11.76289 31234 ft 477 kts 94°
2026-04-17 07:17 49.86064 11.91596 31238 ft 478 kts 94°
2026-04-17 07:18 49.85127 12.01807 31233 ft 478 kts 94°
2026-04-17 07:18 49.84202 12.12010 31233 ft 478 kts 94°
2026-04-17 07:19 49.83282 12.22156 31248 ft 478 kts 94°
2026-04-17 07:19 49.82345 12.32360 31269 ft 478 kts 93°
2026-04-17 07:20 49.81206 12.42536 31249 ft 484 kts 102°
2026-04-17 07:20 49.78451 12.52102 31242 ft 491 kts 120°
2026-04-17 07:21 49.74606 12.60868 31238 ft 493 kts 122°
2026-04-17 07:21 49.70745 12.69613 31226 ft 492 kts 122°
2026-04-17 07:22 49.66879 12.78349 31245 ft 493 kts 122°
2026-04-17 07:22 49.63006 12.87092 31245 ft 493 kts 122°
2026-04-17 07:23 49.59128 12.95820 31246 ft 494 kts 122°
2026-04-17 07:23 49.55231 13.04540 31248 ft 494 kts 122°
2026-04-17 07:24 49.51357 13.13187 31255 ft 494 kts 122°
2026-04-17 07:24 49.47451 13.21883 31255 ft 494 kts 122°
2026-04-17 07:25 49.43545 13.30561 31252 ft 494 kts 122°
2026-04-17 07:25 49.39633 13.39209 31229 ft 493 kts 122°
2026-04-17 07:26 49.35714 13.47832 31251 ft 492 kts 122°
2026-04-17 07:26 49.31797 13.56435 31244 ft 492 kts 122°
2026-04-17 07:27 49.27863 13.65036 31239 ft 492 kts 123°
2026-04-17 07:27 49.23854 13.73534 31238 ft 493 kts 124°
2026-04-17 07:28 49.19780 13.81959 31240 ft 493 kts 124°
2026-04-17 07:28 49.15698 13.90412 31252 ft 493 kts 124°
2026-04-17 07:29 49.11667 13.98821 31214 ft 493 kts 123°
2026-04-17 07:29 49.07610 14.07268 31231 ft 493 kts 124°
2026-04-17 07:30 49.03539 14.15690 31238 ft 493 kts 124°
2026-04-17 07:30 48.99461 14.24102 31256 ft 494 kts 124°
2026-04-17 07:31 48.96060 14.31086 31190 ft 495 kts 124°
2026-04-17 07:31 48.94001 14.35296 30965 ft 496 kts 124°
2026-04-17 07:31 48.91927 14.39472 30706 ft 496 kts 125°
2026-04-17 07:32 48.89826 14.43640 30461 ft 496 kts 125°
2026-04-17 07:32 48.87041 14.49116 29973 ft 493 kts 125°
2026-04-17 07:32 48.85626 14.51889 29506 ft 490 kts 125°
2026-04-17 07:32 48.83551 14.55953 28885 ft 484 kts 125°
2026-04-17 07:33 48.81497 14.59979 28249 ft 480 kts 126°
2026-04-17 07:33 48.79473 14.63953 27663 ft 476 kts 126°
2026-04-17 07:33 48.77458 14.67910 27059 ft 471 kts 126°
2026-04-17 07:33 48.75486 14.71780 26479 ft 468 kts 126°
2026-04-17 07:34 48.73503 14.75671 25871 ft 464 kts 126°
2026-04-17 07:34 48.71543 14.79519 25282 ft 461 kts 126°
2026-04-17 07:34 48.69589 14.83347 24707 ft 457 kts 126°
2026-04-17 07:34 48.67617 14.87198 24131 ft 454 kts 126°
2026-04-17 07:35 48.65713 14.90901 23538 ft 450 kts 126°
2026-04-17 07:35 48.63800 14.94606 23010 ft 444 kts 126°
2026-04-17 07:35 48.61909 14.98265 22505 ft 438 kts 126°
2026-04-17 07:35 48.60131 15.01958 22027 ft 431 kts 119°
2026-04-17 07:36 48.58771 15.05939 21581 ft 422 kts 109°
2026-04-17 07:36 48.57861 15.10097 21131 ft 413 kts 101°
2026-04-17 07:36 48.57150 15.14273 20678 ft 408 kts 101°
2026-04-17 07:36 48.56442 15.18404 20234 ft 405 kts 101°
2026-04-17 07:37 48.55736 15.22498 19781 ft 401 kts 101°
2026-04-17 07:37 48.55031 15.26558 19325 ft 398 kts 102°
2026-04-17 07:37 48.54330 15.30590 18862 ft 396 kts 102°
2026-04-17 07:37 48.53634 15.34600 18369 ft 395 kts 102°
2026-04-17 07:38 48.52938 15.38594 17873 ft 392 kts 102°
2026-04-17 07:38 48.52252 15.42561 17394 ft 389 kts 100°
2026-04-17 07:38 48.51869 15.46555 17056 ft 383 kts 90°
2026-04-17 07:38 48.51670 15.50580 16940 ft 385 kts 91°
2026-04-17 07:39 48.51450 15.54562 16756 ft 385 kts 91°
2026-04-17 07:39 48.51211 15.58580 16581 ft 384 kts 92°
2026-04-17 07:39 48.50969 15.62587 16388 ft 383 kts 92°
2026-04-17 07:39 48.50731 15.66578 16227 ft 381 kts 92°
2026-04-17 07:40 48.50497 15.70560 16046 ft 381 kts 92°
2026-04-17 07:40 48.50267 15.74524 15847 ft 380 kts 92°
2026-04-17 07:40 48.50038 15.78481 15662 ft 379 kts 92°
2026-04-17 07:40 48.49809 15.82438 15481 ft 377 kts 92°
2026-04-17 07:41 48.49579 15.86367 15307 ft 376 kts 92°
2026-04-17 07:41 48.49349 15.90289 15126 ft 375 kts 92°
2026-04-17 07:41 48.49116 15.94206 14947 ft 374 kts 92°
2026-04-17 07:41 48.48880 15.98100 14767 ft 372 kts 92°
2026-04-17 07:42 48.48642 16.01981 14593 ft 371 kts 92°
2026-04-17 07:42 48.48401 16.05848 14415 ft 370 kts 92°
2026-04-17 07:42 48.48159 16.09702 14238 ft 369 kts 92°
2026-04-17 07:42 48.47952 16.13545 14056 ft 367 kts 91°
2026-04-17 07:43 48.47793 16.17384 13862 ft 365 kts 90°
2026-04-17 07:43 48.47660 16.21198 13683 ft 363 kts 90°
2026-04-17 07:43 48.47533 16.24993 13507 ft 362 kts 90°
2026-04-17 07:43 48.47402 16.28772 13330 ft 361 kts 90°
2026-04-17 07:44 48.47266 16.32539 13157 ft 359 kts 90°
2026-04-17 07:44 48.47125 16.36291 12977 ft 358 kts 91°
2026-04-17 07:44 48.46979 16.40027 12804 ft 357 kts 91°
2026-04-17 07:44 48.46829 16.43756 12647 ft 355 kts 91°
2026-04-17 07:45 48.46670 16.47461 12473 ft 354 kts 93°
2026-04-17 07:45 48.46116 16.51072 12281 ft 356 kts 110°
2026-04-17 07:45 48.44920 16.54262 12113 ft 357 kts 127°
2026-04-17 07:45 48.43129 16.56860 11933 ft 357 kts 144°
2026-04-17 07:46 48.40924 16.58558 11759 ft 356 kts 162°
2026-04-17 07:46 48.38546 16.59586 11574 ft 355 kts 164°
2026-04-17 07:46 48.36165 16.60582 11400 ft 354 kts 164°
2026-04-17 07:46 48.33790 16.61574 11227 ft 353 kts 164°
2026-04-17 07:47 48.31424 16.62569 11055 ft 353 kts 164°
2026-04-17 07:47 48.29069 16.63561 10874 ft 349 kts 164°
2026-04-17 07:47 48.26807 16.64511 10728 ft 325 kts 164°
2026-04-17 07:47 48.24691 16.65399 10445 ft 309 kts 164°
2026-04-17 07:48 48.22645 16.66256 10007 ft 303 kts 163°
2026-04-17 07:48 48.20621 16.67105 9842 ft 301 kts 163°
2026-04-17 07:48 48.18607 16.67950 9710 ft 300 kts 163°
2026-04-17 07:48 48.16600 16.68790 9595 ft 299 kts 164°
2026-04-17 07:49 48.14597 16.69628 9495 ft 299 kts 163°
2026-04-17 07:49 48.12592 16.70467 9361 ft 299 kts 163°
2026-04-17 07:49 48.10584 16.71307 9239 ft 299 kts 163°
2026-04-17 07:49 48.08583 16.72143 9191 ft 299 kts 164°
2026-04-17 07:50 48.06576 16.72978 9094 ft 299 kts 163°
2026-04-17 07:50 48.04567 16.73812 8932 ft 299 kts 163°
2026-04-17 07:50 48.02593 16.74631 8794 ft 298 kts 163°
2026-04-17 07:50 48.00570 16.75473 8650 ft 298 kts 163°
2026-04-17 07:51 47.98585 16.76294 8509 ft 297 kts 164°
2026-04-17 07:51 47.96589 16.77116 8366 ft 297 kts 164°
2026-04-17 07:51 47.94623 16.77928 8227 ft 296 kts 164°
2026-04-17 07:51 47.92640 16.78748 8091 ft 294 kts 164°
2026-04-17 07:52 47.90675 16.79559 7941 ft 293 kts 164°
2026-04-17 07:52 47.88697 16.80373 7800 ft 294 kts 164°
2026-04-17 07:52 47.86721 16.81187 7652 ft 294 kts 164°
2026-04-17 07:52 47.84751 16.81997 7524 ft 293 kts 164°
2026-04-17 07:53 47.82738 16.82404 7398 ft 292 kts 184°
2026-04-17 07:53 47.80791 16.81680 7271 ft 289 kts 208°
2026-04-17 07:53 47.79186 16.79920 7060 ft 287 kts 231°
2026-04-17 07:53 47.78177 16.77424 6645 ft 279 kts 256°
2026-04-17 07:54 47.77993 16.74626 6127 ft 272 kts 283°
2026-04-17 07:54 47.78781 16.72166 5618 ft 265 kts 317°
2026-04-17 07:54 47.80348 16.70887 5269 ft 256 kts 346°
2026-04-17 07:54 47.82074 16.70311 4801 ft 255 kts 348°
2026-04-17 07:55 47.83784 16.69672 4524 ft 248 kts 346°
2026-04-17 07:55 47.85412 16.68996 4377 ft 237 kts 345°
2026-04-17 07:55 47.86968 16.68340 4261 ft 227 kts 345°
2026-04-17 07:55 47.88445 16.67720 4182 ft 214 kts 345°
2026-04-17 07:56 47.89842 16.67135 4099 ft 203 kts 345°
2026-04-17 07:56 47.91180 16.66574 4011 ft 197 kts 345°
2026-04-17 07:56 47.92476 16.66031 3918 ft 188 kts 345°
2026-04-17 07:56 47.93706 16.65515 3708 ft 181 kts 345°
2026-04-17 07:57 47.94904 16.65013 3482 ft 177 kts 346°
2026-04-17 07:57 47.96079 16.64519 3230 ft 175 kts 346°
2026-04-17 07:57 47.97216 16.64041 2995 ft 169 kts 344°
2026-04-17 07:57 47.98336 16.63570 2790 ft 166 kts 344°
2026-04-17 07:58 47.99422 16.63114 2565 ft 157 kts 345°
2026-04-17 07:58 48.00413 16.62696 2361 ft 141 kts 344°
2026-04-17 07:58 48.01338 16.62308 2178 ft 136 kts 344°
2026-04-17 07:58 48.02250 16.61923 1998 ft 136 kts 343°
2026-04-17 07:59 48.03156 16.61541 1814 ft 134 kts 343°
2026-04-17 07:59 48.04051 16.61164 1630 ft 134 kts 343°
2026-04-17 07:59 48.04950 16.60785 1455 ft 134 kts 345°
2026-04-17 07:59 48.05849 16.60407 1273 ft 137 kts 344°
2026-04-17 08:00 48.06759 16.60022 1073 ft 134 kts 345°
2026-04-17 08:00 48.07666 16.59640 884 ft 136 kts 347°
2026-04-17 08:00 48.08578 16.59255 719 ft 136 kts 346°
2026-04-17 08:00 48.09483 16.58885 623 ft 132 kts 341°
2026-04-17 08:01 48.10091 16.58626 621 ft 46 kts 344°
2026-04-17 08:01 48.10350 16.58488 622 ft 21 kts 319°
2026-04-17 08:01 48.10438 16.58318 610 ft 21 kts 300°
2026-04-17 08:01 48.10458 16.58265 610 ft 0 kts 300°
2026-04-17 08:02 48.10483 16.58202 614 ft 15 kts 300°
2026-04-17 08:02 48.10594 16.58125 614 ft 19 kts 345°
2026-04-17 08:03 48.10727 16.58067 614 ft 20 kts 344°
2026-04-17 08:03 48.10868 16.58009 621 ft 22 kts 344°
2026-04-17 08:03 48.10992 16.57880 626 ft 23 kts 314°
2026-04-17 08:03 48.11076 16.57685 621 ft 19 kts 296°
2026-04-17 08:04 48.11156 16.57602 610 ft 12 kts 21°
2026-04-17 08:04 48.11239 16.57665 623 ft 14 kts 27°
2026-04-17 08:04 48.11340 16.57671 615 ft 16 kts 344°
2026-04-17 08:04 48.11453 16.57624 610 ft 18 kts 344°
2026-04-17 08:05 48.11544 16.57528 618 ft 17 kts 264°
2026-04-17 08:05 48.11458 16.57433 624 ft 15 kts 207°
2026-04-17 08:05 48.11449 16.57318 623 ft 12 kts 298°
2026-04-17 08:05 48.11488 16.57201 617 ft 13 kts 295°
2026-04-17 08:06 48.11528 16.57077 615 ft 14 kts 296°
2026-04-17 08:06 48.11573 16.56939 616 ft 16 kts 296°
2026-04-17 08:06 48.11619 16.56799 617 ft 7 kts 296°
2026-04-17 08:06 48.11648 16.56775 620 ft 5 kts 13°
2026-04-17 08:07 48.11688 16.56802 622 ft 7 kts 27°
2026-04-17 08:07 48.11712 16.56819 610 ft 1 kts 24°
2026-04-17 08:07 48.11716 16.56822 610 ft 0 kts 25°